Location: Fours
(44.3167°N, 6.7000°E)
Time: 01:35:29
(UTC+00:00)

Cosmos 1656 - Pass Details

Date: 16 October 2021
Orbit: 799 x 848 km, 71.1° (Epoch: 02 December)

Event Time Altitude Azimuth Distance (km) Brightness Sun altitude
Rises 17:23:48 0° 216° (SW) 3,344 7.5 -7.3°
Reaches altitude 10° 17:26:16 10° 221° (SW) 2,408 6.8 -7.7°
Maximum altitude 17:31:41 56° 299° (WNW) 960 4.4 -8.7°
Drops below altitude 10° 17:37:04 10° 18° (NNE) 2,394 5.9 -9.7°
Sets 17:39:32 0° 23° (NNE) 3,324 6.5 -10.1°
